Precipitable_Water
0.55 0.54 0.56 0.70 0.84 0.92 1.07 1.10 1.18 1.24 1.23 1.20 1.22 1.21 1.24 1.28 1.32 1.34 1.28 1.14 1.08 1.07 1.09 1.10 1.09 1.12 1.07 1.09 1.07 1.05 0.98 0.94 0.81 0.87 0.93 0.96 0.92 0.92 0.93 0.93 0.94 0.94 0.95
0.49 0.51 0.53 0.72 0.81 0.74 0.99 1.11 1.16 1.17 1.18 1.18 1.19 1.24 1.30 1.29 1.29 1.34 1.19 1.09 1.07 1.09 1.10 1.10 1.09 1.08 1.04 1.04 1.02 0.98 0.96 0.95 0.87 0.78 0.82 0.81 0.80 0.81 0.79 0.75 0.75 0.73 0.75
0.42 0.43 0.52 0.68 0.80 0.77 0.78 0.98 1.08 1.15 1.14 1.19 1.23 1.25 1.30 1.29 1.34 1.30 1.16 1.14 1.12 1.13 1.12 1.11 1.07 1.05 0.98 0.99 0.97 0.93 0.95 0.94 0.84 0.76 0.69 0.75 0.72 0.69 0.61 0.61 0.57 0.54 0.53
0.38 0.38 0.49 0.68 0.85 0.79 0.85 0.88 1.05 1.19 1.16 1.22 1.27 1.25 1.29 1.36 1.32 1.22 1.17 1.14 1.14 1.14 1.13 1.09 1.06 0.99 0.98 0.97 0.95 0.93 0.88 0.75 0.73 0.69 0.62 0.58 0.59 0.56 0.53 0.44 0.36 0.36 0.35
0.36 0.37 0.50 0.74 0.90 0.87 0.83 1.02 1.15 1.26 1.25 1.33 1.28 1.32 1.34 1.31 1.27 1.20 1.17 1.14 1.10 1.08 1.08 1.08 1.06 1.05 1.04 1.00 0.93 0.80 0.69 0.63 0.56 0.53 0.47 0.45 0.44 0.41 0.35 0.31 0.26 0.26 0.27
0.38 0.37 0.52 0.78 0.95 0.95 0.88 1.07 1.25 1.24 1.28 1.29 1.31 1.30 1.27 1.28 1.27 1.22 1.16 1.12 1.09 1.03 1.04 1.04 1.02 1.03 1.01 0.93 0.76 0.63 0.61 0.53 0.49 0.45 0.43 0.34 0.27 0.26 0.25 0.26 0.26 0.23 0.18
0.38 0.39 0.52 0.79 0.90 1.05 0.97 1.11 1.23 1.25 1.26 1.25 1.28 1.29 1.26 1.25 1.21 1.16 1.14 1.10 1.02 1.04 1.01 0.93 0.92 0.94 0.80 0.65 0.60 0.55 0.49 0.44 0.41 0.31 0.23 0.19 0.18 0.20 0.21 0.19 0.19 0.19 0.20
0.38 0.39 0.54 0.76 0.96 1.01 1.03 1.12 1.21 1.20 1.19 1.22 1.24 1.26 1.22 1.23 1.18 1.14 1.09 1.00 0.99 1.00 0.96 0.93 0.88 0.67 0.58 0.52 0.46 0.39 0.35 0.32 0.25 0.21 0.20 0.22 0.24 0.26 0.24 0.21 0.20 0.20 0.22
0.38 0.39 0.51 0.77 0.93 0.97 1.04 1.16 1.16 1.12 1.13 1.16 1.25 1.20 1.19 1.19 1.16 1.07 0.95 0.93 0.95 0.90 0.92 0.86 0.58 0.50 0.50 0.40 0.33 0.26 0.25 0.24 0.29 0.28 0.28 0.28 0.28 0.28 0.26 0.24 0.20 0.17 0.16
0.39 0.40 0.51 0.78 0.91 0.94 1.08 1.13 1.11 1.15 1.18 1.20 1.17 1.19 1.17 1.11 1.07 0.97 0.94 0.91 0.86 0.87 0.82 0.59 0.56 0.46 0.35 0.26 0.20 0.17 0.15 0.16 0.18 0.19 0.19 0.20 0.20 0.20 0.19 0.19 0.19 0.17 0.18
0.42 0.42 0.51 0.81 0.90 1.00 1.09 1.11 1.10 1.10 1.11 1.13 1.11 1.14 1.11 1.09 1.01 0.97 0.95 0.92 0.87 0.73 0.51 0.42 0.36 0.30 0.22 0.20 0.18 0.15 0.15 0.19 0.20 0.19 0.19 0.19 0.19 0.20 0.21 0.22 0.23 0.22 0.19
0.45 0.43 0.51 0.78 0.90 1.02 1.05 1.09 1.11 1.08 1.07 1.07 1.06 1.04 1.06 1.02 0.99 0.94 0.92 0.93 0.78 0.47 0.32 0.30 0.26 0.21 0.21 0.22 0.20 0.20 0.20 0.20 0.20 0.19 0.18 0.18 0.19 0.20 0.22 0.24 0.25 0.26 0.24
0.44 0.43 0.55 0.79 0.91 1.01 0.98 1.03 1.03 1.05 1.02 1.01 0.99 0.98 0.90 0.88 0.94 0.94 0.95 0.79 0.49 0.35 0.29 0.25 0.25 0.26 0.26 0.23 0.22 0.21 0.20 0.20 0.19 0.18 0.18 0.19 0.21 0.22 0.24 0.24 0.26 0.27 0.25
0.42 0.43 0.64 0.81 0.95 1.02 1.02 1.06 0.98 1.02 1.00 1.00 0.96 0.85 0.86 0.88 0.91 0.93 0.80 0.53 0.39 0.32 0.29 0.27 0.27 0.27 0.23 0.21 0.20 0.19 0.20 0.20 0.20 0.19 0.20 0.21 0.23 0.22 0.22 0.24 0.24 0.25 0.24
0.42 0.48 0.69 0.86 0.94 0.97 1.02 1.02 1.02 1.06 1.05 1.00 0.93 0.88 0.90 0.85 0.93 0.83 0.56 0.39 0.33 0.27 0.23 0.24 0.23 0.20 0.16 0.17 0.18 0.19 0.21 0.21 0.20 0.21 0.21 0.21 0.22 0.23 0.23 0.25 0.24 0.25 0.24
0.42 0.54 0.79 0.89 0.91 0.96 0.96 0.95 1.03 1.06 1.06 1.03 0.98 0.96 0.97 0.96 0.87 0.57 0.40 0.35 0.29 0.22 0.20 0.19 0.19 0.16 0.15 0.16 0.17 0.18 0.20 0.21 0.22 0.23 0.23 0.22 0.22 0.22 0.23 0.24 0.25 0.24 0.24
0.48 0.67 0.84 0.88 0.92 0.93 0.94 0.93 0.88 0.95 1.00 1.00 1.03 1.00 1.00 0.91 0.62 0.42 0.35 0.28 0.22 0.20 0.17 0.19 0.16 0.15 0.16 0.17 0.18 0.18 0.19 0.22 0.25 0.24 0.24 0.23 0.24 0.24 0.23 0.24 0.24 0.25 0.25
0.59 0.81 0.87 0.89 0.92 0.94 0.94 0.93 0.93 0.88 0.84 0.87 0.96 0.97 0.93 0.67 0.48 0.36 0.28 0.21 0.18 0.19 0.19 0.18 0.16 0.16 0.16 0.17 0.19 0.19 0.21 0.22 0.24 0.25 0.25 0.25 0.25 0.24 0.23 0.23 0.24 0.24 0.24
0.79 0.85 0.89 0.90 0.92 0.94 0.95 0.92 0.94 0.91 0.87 0.85 0.87 0.84 0.72 0.50 0.38 0.30 0.21 0.15 0.16 0.18 0.20 0.18 0.17 0.16 0.17 0.19 0.20 0.22 0.22 0.22 0.24 0.24 0.25 0.25 0.25 0.25 0.24 0.25 0.25 0.25 0.25
0.87 0.89 0.90 0.91 0.93 0.93 0.92 0.92 0.91 0.89 0.85 0.85 0.80 0.72 0.48 0.35 0.26 0.19 0.17 0.17 0.18 0.20 0.21 0.18 0.17 0.17 0.19 0.20 0.22 0.23 0.23 0.23 0.24 0.24 0.25 0.26 0.26 0.26 0.25 0.25 0.25 0.24 0.24
0.84 0.87 0.92 0.93 0.92 0.91 0.93 0.92 0.90 0.89 0.86 0.81 0.73 0.55 0.37 0.27 0.19 0.17 0.17 0.18 0.20 0.22 0.21 0.19 0.18 0.18 0.20 0.21 0.23 0.22 0.23 0.23 0.25 0.25 0.26 0.26 0.26 0.25 0.26 0.26 0.27 0.26 0.26
0.86 0.90 0.90 0.90 0.90 0.92 0.91 0.92 0.91 0.90 0.85 0.74 0.56 0.40 0.33 0.21 0.17 0.18 0.18 0.20 0.22 0.24 0.22 0.20 0.19 0.19 0.20 0.21 0.23 0.23 0.23 0.23 0.25 0.26 0.26 0.27 0.27 0.27 0.27 0.27 0.27 0.27 0.27
0.87 0.89 0.90 0.91 0.91 0.92 0.91 0.91 0.90 0.88 0.81 0.58 0.41 0.32 0.24 0.18 0.18 0.19 0.20 0.22 0.24 0.24 0.23 0.22 0.20 0.20 0.22 0.24 0.24 0.24 0.23 0.24 0.26 0.27 0.27 0.27 0.27 0.27 0.27 0.28 0.28 0.27 0.27
0.90 0.90 0.90 0.90 0.91 0.90 0.90 0.89 0.82 0.75 0.62 0.44 0.35 0.27 0.20 0.19 0.19 0.20 0.21 0.23 0.25 0.24 0.23 0.22 0.21 0.21 0.22 0.24 0.25 0.25 0.25 0.26 0.27 0.27 0.27 0.27 0.27 0.28 0.28 0.28 0.29 0.29 0.28
0.90 0.89 0.90 0.89 0.89 0.90 0.90 0.87 0.76 0.65 0.50 0.39 0.32 0.24 0.19 0.19 0.20 0.21 0.22 0.23 0.25 0.24 0.23 0.23 0.23 0.22 0.23 0.24 0.24 0.24 0.25 0.26 0.26 0.27 0.27 0.27 0.27 0.28 0.29 0.29 0.29 0.29 0.29
0.89 0.89 0.89 0.89 0.89 0.90 0.90 0.84 0.73 0.62 0.44 0.37 0.31 0.23 0.19 0.18 0.20 0.22 0.22 0.23 0.24 0.24 0.23 0.24 0.23 0.23 0.25 0.25 0.25 0.25 0.25 0.25 0.25 0.26 0.26 0.26 0.26 0.27 0.28 0.29 0.30 0.30 0.30
Wind_Speed
21 22 20 18 18 17 15 14 16 15 16 16 17 18 18 17 27 28 25 20 18 15 13 12 10 9 8 7 6 6 5 5 4 5 6 6 6 6 6 7 8 9 11
20 19 18 17 17 17 16 17 19 19 15 15 14 14 18 21 28 29 24 20 18 16 14 12 11 9 8 6 5 4 4 4 5 4 5 4 3 6 7 9 10 12 13
19 18 17 16 16 16 17 18 20 21 17 14 12 13 16 25 30 27 23 21 18 16 14 13 11 9 7 6 4 3 2 3 2 2 1 2 5 7 9 12 14 16 16
17 16 15 14 14 14 15 17 18 22 18 15 16 19 23 28 28 23 22 20 18 16 15 13 10 8 7 6 4 2 3 3 3 2 1 4 7 10 12 14 16 17 18
16 14 13 12 12 13 10 14 18 22 20 18 20 24 26 27 25 22 21 20 19 17 15 12 9 8 8 5 5 6 6 4 3 2 5 7 10 12 14 15 17 18 20
15 13 12 12 11 12 10 12 20 21 21 22 24 25 26 27 25 22 21 22 20 17 14 12 10 10 8 9 9 8 6 4 2 4 7 9 11 13 14 17 19 21 23
14 13 12 12 12 8 9 13 23 23 22 22 24 26 28 27 25 22 24 21 19 16 14 13 12 11 12 12 10 8 6 6 5 6 8 10 12 14 16 19 21 23 24
13 13 12 12 9 7 8 13 24 23 22 23 24 29 29 27 26 24 23 20 18 16 15 14 14 14 13 11 10 8 7 7 8 9 10 12 14 16 18 20 22 24 25
13 13 13 13 9 6 8 15 22 21 21 23 33 29 29 28 26 24 22 19 19 18 17 16 16 15 13 11 9 9 8 9 10 11 13 15 16 17 19 23 25 25 26
12 14 14 14 9 7 8 17 20 21 23 28 30 30 29 26 25 23 21 20 21 20 18 18 16 14 13 11 9 9 9 9 10 12 14 17 18 21 23 25 26 25 24
14 16 17 14 11 10 13 21 20 21 27 31 30 29 27 26 24 23 22 23 22 20 20 18 16 15 13 11 10 9 10 10 11 13 15 17 20 22 25 27 27 27 24
17 19 19 16 13 15 17 23 20 25 30 31 30 27 27 25 23 23 23 24 23 21 20 18 16 15 14 12 11 11 11 11 12 14 16 18 20 22 25 27 28 27 24
21 21 22 19 16 22 19 22 24 24 29 28 27 27 25 23 23 25 26 25 23 21 20 19 17 15 14 12 11 11 11 11 13 15 17 18 20 22 25 28 28 28 24
25 26 25 20 20 22 19 24 24 26 26 30 27 25 26 26 26 26 25 25 24 22 21 18 16 15 13 12 10 10 11 12 13 15 17 18 20 22 25 28 29 28 25
30 30 28 22 22 22 22 25 25 26 28 28 27 28 27 25 27 27 27 24 23 21 20 18 15 13 12 11 10 10 11 12 14 15 17 18 20 22 25 28 29 28 26
35 34 29 25 24 24 25 24 24 26 27 29 29 29 28 29 29 28 27 25 24 22 19 17 15 13 12 11 10 10 11 12 14 15 17 18 20 22 25 27 29 30 28
38 35 30 28 25 26 25 26 27 27 29 29 30 31 31 31 30 29 27 25 23 20 18 16 14 13 11 10 10 10 11 12 14 15 17 18 20 22 24 26 28 30 30
38 33 30 28 28 27 27 28 29 31 30 31 32 32 32 31 30 29 26 24 21 19 17 16 14 12 11 10 10 11 11 12 14 15 17 18 19 21 23 25 27 29 30
35 33 30 29 29 27 28 30 32 30 31 32 32 32 31 31 30 27 24 22 21 19 17 15 14 12 11 10 10 11 12 12 14 15 16 18 19 21 22 24 26 28 30
34 33 29 29 28 27 29 30 32 32 33 31 30 30 31 30 27 25 23 22 21 19 17 15 13 12 11 11 11 11 12 13 14 15 16 17 19 20 22 23 25 27 28
31 29 30 28 28 28 30 30 32 33 32 31 31 31 31 28 27 25 24 22 21 19 16 14 13 12 11 11 11 11 12 13 14 15 16 17 18 20 21 23 25 26 27
29 29 28 27 29 28 30 31 33 32 31 31 31 31 30 28 26 25 24 22 20 18 16 14 13 12 12 11 11 12 12 13 14 15 16 17 18 20 21 22 24 25 27
27 28 29 30 29 30 32 31 32 32 31 33 31 31 29 28 26 25 24 22 20 18 16 15 13 12 12 12 12 12 13 13 14 15 16 17 18 20 21 22 23 24 26
27 28 29 32 27 31 31 31 31 33 33 32 32 31 29 28 26 25 24 22 20 18 16 15 13 13 13 13 13 13 13 14 15 16 18 19 19 20 21 23 23 25 26
27 29 30 30 29 31 33 32 32 32 32 32 31 30 29 28 26 25 24 22 20 18 16 15 14 13 13 13 14 14 14 15 16 17 18 19 20 20 21 22 23 24 25
26 26 29 30 30 33 34 33 32 31 31 31 31 30 29 28 26 25 24 23 20 19 17 15 14 14 14 14 14 15 15 16 17 17 18 18 19 20 21 21 22 23 24
Wind_Direction
293 288 281 271 266 260 252 243 227 221 219 230 236 237 225 201 189 186 184 186 185 187 187 188 192 191 196 197 207 212 216 230 244 263 282 299 310 323 331 336 329 324 318
291 289 278 267 261 253 247 241 230 231 228 231 236 227 208 197 180 179 179 181 180 179 180 180 182 183 183 192 194 206 218 235 252 261 277 300 316 326 324 326 326 322 317
289 286 277 263 258 252 250 244 235 225 223 223 217 192 177 170 168 170 174 174 176 175 174 175 176 179 182 181 183 190 216 238 239 210 253 306 324 323 324 322 319 316 314
289 287 273 262 251 253 255 240 227 210 205 204 189 172 164 160 161 163 166 169 168 167 168 170 172 172 171 170 175 179 157 136 127 114 354 327 322 321 322 322 322 320 315
285 284 267 254 246 246 252 225 207 193 195 186 178 172 167 163 164 162 164 164 163 161 163 163 163 161 157 157 144 132 129 118 102 28 340 334 328 323 323 323 324 323 322
282 272 258 243 243 242 240 212 188 183 181 172 167 167 168 165 162 161 162 161 158 158 155 153 149 144 136 131 123 118 116 96 46 357 343 341 337 333 329 326 323 320 317
278 261 249 238 242 253 236 207 179 173 170 166 166 164 161 159 159 158 158 158 157 157 153 149 142 137 131 126 117 105 85 63 37 13 360 350 345 342 338 336 333 328 322
274 251 235 228 238 252 235 180 163 168 167 166 164 161 158 157 156 154 154 155 156 152 150 144 138 134 130 125 114 96 75 55 35 21 11 1 353 347 344 341 338 335 331
264 238 224 219 226 239 168 152 160 165 167 165 158 157 156 155 154 154 153 151 149 145 143 139 136 132 128 121 108 91 74 55 43 32 21 11 3 356 350 344 340 338 337
253 228 216 212 226 203 160 160 152 154 159 160 158 156 154 156 153 153 151 151 144 143 141 138 134 131 125 116 102 89 73 55 43 30 21 17 12 8 2 356 350 348 344
237 218 210 208 203 189 161 160 157 157 152 151 151 152 152 154 152 150 149 147 144 142 141 137 133 128 120 110 96 83 74 60 44 32 24 19 14 10 8 5 4 1 0
222 209 203 198 185 169 161 165 158 150 148 148 149 149 150 150 150 149 148 146 143 141 139 136 132 125 116 106 92 85 71 55 40 31 25 20 16 13 11 10 9 9 11
208 200 191 186 183 169 158 160 158 156 158 157 155 152 152 151 150 148 146 143 140 139 137 134 129 122 113 102 93 79 62 47 38 32 26 23 20 18 16 14 14 14 17
197 190 183 181 174 170 168 164 161 158 157 158 160 158 153 150 148 148 146 143 141 138 136 132 127 120 110 101 87 70 55 45 40 35 30 27 25 22 21 19 18 19 22
186 180 178 177 167 165 160 162 160 158 160 161 160 158 156 155 153 150 148 146 144 140 136 132 126 118 109 99 84 68 55 47 42 37 34 31 29 27 25 24 24 25 27
177 174 173 166 159 161 157 156 158 161 162 160 160 157 154 151 150 149 147 145 142 140 136 131 124 117 110 98 83 69 57 51 44 40 36 35 34 32 31 30 29 30 30
168 168 166 161 158 156 156 156 152 151 154 155 156 157 153 152 150 148 147 144 142 140 135 130 124 117 109 96 81 70 62 53 47 42 40 39 37 36 35 34 33 33 33
162 162 162 162 160 156 156 154 154 153 152 151 152 153 152 151 150 149 147 145 142 139 134 129 122 117 108 95 83 74 66 58 51 47 44 42 40 39 38 37 37 37 37
158 158 158 157 157 156 156 156 156 154 152 150 150 151 152 150 149 149 148 146 143 140 134 127 121 115 106 94 83 76 70 61 54 50 47 45 44 42 41 41 40 41 41
154 155 156 158 156 155 155 155 156 154 153 152 153 152 152 152 151 150 149 146 144 140 135 127 120 114 105 94 86 79 72 64 57 54 51 48 47 45 45 45 44 45 45
155 156 157 157 159 158 157 157 157 157 157 155 155 156 155 154 153 151 149 147 145 141 135 128 120 113 103 95 87 82 74 66 59 57 54 52 51 49 49 49 49 48 48
160 160 161 161 159 158 159 158 159 158 157 158 157 156 155 154 153 152 150 148 145 141 135 127 120 112 105 98 90 84 76 69 63 60 58 57 55 53 53 52 52 51 51
161 162 162 160 159 159 158 157 159 160 160 158 158 157 157 156 154 153 151 149 145 141 135 127 119 111 106 101 95 88 79 71 69 67 63 62 60 59 57 56 55 55 54
158 162 163 161 160 160 160 159 158 159 159 160 160 158 158 157 156 154 153 150 146 141 135 127 120 112 108 103 99 91 84 79 76 73 72 70 67 65 62 60 59 58 57
161 161 162 164 164 163 161 159 159 160 160 161 162 160 159 158 157 156 155 152 148 143 136 130 121 115 111 106 102 95 89 86 84 81 79 76 71 68 65 63 62 61 60
155 161 165 167 167 166 165 163 162 161 162 163 163 162 162 160 159 158 156 154 151 145 139 132 124 117 114 110 106 100 96 94 91 86 82 78 73 70 68 66 64 62 62